Location: Orange
(33.2833°S, 149.1000°E)
Time: 18:29:50
(UTC+11:00)

Hubble Space Telescope - Pass Details

Date: 06 October 2022
Orbit: 530 x 534 km, 28.5° (Epoch: 04 December)

Event Time Altitude Azimuth Distance (km) Brightness Sun altitude
Exits shadow 04:17:24 21° 62° (ENE) 1,219 2.9 -28.2°
Drops below altitude 10° 04:19:02 10° 74° (ENE) 1,787 4.0 -27.9°
Sets 04:21:22 0° 81° (E) 2,679 5.1 -27.5°
